index,time,SiteAddr,SiteName,app,area,date,device_id,gps_alt,gps_fix,gps_lat,gps_lon,gps_num,name,s_d0,s_d1,s_d2,s_h0,s_t0,timestamp
0,10:02:03,臺北市北投區立農里立農街1段250號,市立立農國小(2018),AirBox,taipei,2024-03-21,74DA38F21136,2.0,1.0,25.119,121.505,9.0,臺北市北投區立農國小2018,7.0,9.0,4.0,86.0,20.12,2024-03-21T10:02:03Z
1,10:08:16,臺北市北投區立農里立農街1段250號,市立立農國小(2018),AirBox,taipei,2024-03-21,74DA38F21136,2.0,1.0,25.119,121.505,9.0,臺北市北投區立農國小2018,7.0,8.0,4.0,87.0,20.0,2024-03-21T10:08:16Z
2,10:14:30,臺北市北投區立農里立農街1段250號,市立立農國小(2018),AirBox,taipei,2024-03-21,74DA38F21136,2.0,1.0,25.119,121.505,9.0,臺北市北投區立農國小2018,7.0,8.0,4.0,87.0,20.0,2024-03-21T10:14:30Z
3,10:20:44,臺北市北投區立農里立農街1段250號,市立立農國小(2018),AirBox,taipei,2024-03-21,74DA38F21136,2.0,1.0,25.119,121.505,9.0,臺北市北投區立農國小2018,6.0,8.0,4.0,88.0,19.87,2024-03-21T10:20:44Z
4,10:26:57,臺北市北投區立農里立農街1段250號,市立立農國小(2018),AirBox,taipei,2024-03-21,74DA38F21136,2.0,1.0,25.119,121.505,9.0,臺北市北投區立農國小2018,6.0,7.0,4.0,88.0,19.87,2024-03-21T10:26:57Z
5,10:33:11,臺北市北投區立農里立農街1段250號,市立立農國小(2018),AirBox,taipei,2024-03-21,74DA38F21136,2.0,1.0,25.119,121.505,9.0,臺北市北投區立農國小2018,6.0,7.0,4.0,88.0,19.87,2024-03-21T10:33:11Z
6,10:39:25,臺北市北投區立農里立農街1段250號,市立立農國小(2018),AirBox,taipei,2024-03-21,74DA38F21136,2.0,1.0,25.119,121.505,9.0,臺北市北投區立農國小2018,6.0,8.0,4.0,89.0,19.62,2024-03-21T10:39:25Z
7,10:45:39,臺北市北投區立農里立農街1段250號,市立立農國小(2018),AirBox,taipei,2024-03-21,74DA38F21136,2.0,1.0,25.119,121.505,9.0,臺北市北投區立農國小2018,7.0,8.0,4.0,89.0,19.62,2024-03-21T10:45:39Z
8,10:51:53,臺北市北投區立農里立農街1段250號,市立立農國小(2018),AirBox,taipei,2024-03-21,74DA38F21136,2.0,1.0,25.119,121.505,9.0,臺北市北投區立農國小2018,6.0,8.0,4.0,90.0,19.62,2024-03-21T10:51:53Z
9,10:58:07,臺北市北投區立農里立農街1段250號,市立立農國小(2018),AirBox,taipei,2024-03-21,74DA38F21136,2.0,1.0,25.119,121.505,9.0,臺北市北投區立農國小2018,6.0,9.0,4.0,90.0,19.62,2024-03-21T10:58:07Z
10,11:04:21,臺北市北投區立農里立農街1段250號,市立立農國小(2018),AirBox,taipei,2024-03-21,74DA38F21136,2.0,1.0,25.119,121.505,9.0,臺北市北投區立農國小2018,7.0,9.0,4.0,90.0,19.75,2024-03-21T11:04:21Z
11,11:10:35,臺北市北投區立農里立農街1段250號,市立立農國小(2018),AirBox,taipei,2024-03-21,74DA38F21136,2.0,1.0,25.119,121.505,9.0,臺北市北投區立農國小2018,7.0,9.0,5.0,90.0,19.5,2024-03-21T11:10:35Z
12,11:16:49,臺北市北投區立農里立農街1段250號,市立立農國小(2018),AirBox,taipei,2024-03-21,74DA38F21136,2.0,1.0,25.119,121.505,9.0,臺北市北投區立農國小2018,7.0,8.0,4.0,91.0,19.25,2024-03-21T11:16:49Z
13,11:23:03,臺北市北投區立農里立農街1段250號,市立立農國小(2018),AirBox,taipei,2024-03-21,74DA38F21136,2.0,1.0,25.119,121.505,9.0,臺北市北投區立農國小2018,6.0,8.0,4.0,91.0,19.5,2024-03-21T11:23:03Z
14,11:29:17,臺北市北投區立農里立農街1段250號,市立立農國小(2018),AirBox,taipei,2024-03-21,74DA38F21136,2.0,1.0,25.119,121.505,9.0,臺北市北投區立農國小2018,6.0,8.0,4.0,90.0,19.75,2024-03-21T11:29:17Z
15,11:35:31,臺北市北投區立農里立農街1段250號,市立立農國小(2018),AirBox,taipei,2024-03-21,74DA38F21136,2.0,1.0,25.119,121.505,9.0,臺北市北投區立農國小2018,7.0,8.0,4.0,90.0,19.62,2024-03-21T11:35:31Z
16,11:41:44,臺北市北投區立農里立農街1段250號,市立立農國小(2018),AirBox,taipei,2024-03-21,74DA38F21136,2.0,1.0,25.119,121.505,9.0,臺北市北投區立農國小2018,7.0,8.0,4.0,90.0,19.62,2024-03-21T11:41:44Z
17,11:47:57,臺北市北投區立農里立農街1段250號,市立立農國小(2018),AirBox,taipei,2024-03-21,74DA38F21136,2.0,1.0,25.119,121.505,9.0,臺北市北投區立農國小2018,7.0,8.0,4.0,90.0,19.5,2024-03-21T11:47:57Z
18,11:54:11,臺北市北投區立農里立農街1段250號,市立立農國小(2018),AirBox,taipei,2024-03-21,74DA38F21136,2.0,1.0,25.119,121.505,9.0,臺北市北投區立農國小2018,7.0,8.0,4.0,90.0,19.37,2024-03-21T11:54:11Z
19,12:00:24,臺北市北投區立農里立農街1段250號,市立立農國小(2018),AirBox,taipei,2024-03-21,74DA38F21136,2.0,1.0,25.119,121.505,9.0,臺北市北投區立農國小2018,7.0,9.0,4.0,91.0,19.37,2024-03-21T12:00:24Z
20,12:06:39,臺北市北投區立農里立農街1段250號,市立立農國小(2018),AirBox,taipei,2024-03-21,74DA38F21136,2.0,1.0,25.119,121.505,9.0,臺北市北投區立農國小2018,7.0,9.0,4.0,91.0,19.25,2024-03-21T12:06:39Z
21,12:12:53,臺北市北投區立農里立農街1段250號,市立立農國小(2018),AirBox,taipei,2024-03-21,74DA38F21136,2.0,1.0,25.119,121.505,9.0,臺北市北投區立農國小2018,7.0,8.0,4.0,91.0,19.25,2024-03-21T12:12:53Z
22,12:19:06,臺北市北投區立農里立農街1段250號,市立立農國小(2018),AirBox,taipei,2024-03-21,74DA38F21136,2.0,1.0,25.119,121.505,9.0,臺北市北投區立農國小2018,6.0,8.0,4.0,91.0,19.37,2024-03-21T12:19:06Z
23,12:25:20,臺北市北投區立農里立農街1段250號,市立立農國小(2018),AirBox,taipei,2024-03-21,74DA38F21136,2.0,1.0,25.119,121.505,9.0,臺北市北投區立農國小2018,7.0,8.0,4.0,91.0,19.12,2024-03-21T12:25:20Z
24,12:31:33,臺北市北投區立農里立農街1段250號,市立立農國小(2018),AirBox,taipei,2024-03-21,74DA38F21136,2.0,1.0,25.119,121.505,9.0,臺北市北投區立農國小2018,7.0,8.0,4.0,91.0,19.25,2024-03-21T12:31:33Z
25,12:37:47,臺北市北投區立農里立農街1段250號,市立立農國小(2018),AirBox,taipei,2024-03-21,74DA38F21136,2.0,1.0,25.119,121.505,9.0,臺北市北投區立農國小2018,7.0,9.0,5.0,91.0,19.37,2024-03-21T12:37:47Z
26,12:44:01,臺北市北投區立農里立農街1段250號,市立立農國小(2018),AirBox,taipei,2024-03-21,74DA38F21136,2.0,1.0,25.119,121.505,9.0,臺北市北投區立農國小2018,7.0,8.0,4.0,91.0,19.37,2024-03-21T12:44:01Z
27,12:50:16,臺北市北投區立農里立農街1段250號,市立立農國小(2018),AirBox,taipei,2024-03-21,74DA38F21136,2.0,1.0,25.119,121.505,9.0,臺北市北投區立農國小2018,8.0,9.0,5.0,91.0,19.37,2024-03-21T12:50:16Z
28,12:56:29,臺北市北投區立農里立農街1段250號,市立立農國小(2018),AirBox,taipei,2024-03-21,74DA38F21136,2.0,1.0,25.119,121.505,9.0,臺北市北投區立農國小2018,7.0,9.0,5.0,91.0,19.37,2024-03-21T12:56:29Z
29,13:02:42,臺北市北投區立農里立農街1段250號,市立立農國小(2018),AirBox,taipei,2024-03-21,74DA38F21136,2.0,1.0,25.119,121.505,9.0,臺北市北投區立農國小2018,7.0,8.0,5.0,91.0,19.37,2024-03-21T13:02:42Z
30,13:08:56,臺北市北投區立農里立農街1段250號,市立立農國小(2018),AirBox,taipei,2024-03-21,74DA38F21136,2.0,1.0,25.119,121.505,9.0,臺北市北投區立農國小2018,7.0,8.0,4.0,91.0,19.37,2024-03-21T13:08:56Z
31,13:15:10,臺北市北投區立農里立農街1段250號,市立立農國小(2018),AirBox,taipei,2024-03-21,74DA38F21136,2.0,1.0,25.119,121.505,9.0,臺北市北投區立農國小2018,7.0,8.0,4.0,91.0,19.25,2024-03-21T13:15:10Z
32,13:21:24,臺北市北投區立農里立農街1段250號,市立立農國小(2018),AirBox,taipei,2024-03-21,74DA38F21136,2.0,1.0,25.119,121.505,9.0,臺北市北投區立農國小2018,7.0,8.0,4.0,91.0,19.25,2024-03-21T13:21:24Z
33,13:27:37,臺北市北投區立農里立農街1段250號,市立立農國小(2018),AirBox,taipei,2024-03-21,74DA38F21136,2.0,1.0,25.119,121.505,9.0,臺北市北投區立農國小2018,7.0,9.0,5.0,91.0,19.12,2024-03-21T13:27:37Z
34,13:33:51,臺北市北投區立農里立農街1段250號,市立立農國小(2018),AirBox,taipei,2024-03-21,74DA38F21136,2.0,1.0,25.119,121.505,9.0,臺北市北投區立農國小2018,8.0,9.0,5.0,92.0,19.0,2024-03-21T13:33:51Z
35,13:40:05,臺北市北投區立農里立農街1段250號,市立立農國小(2018),AirBox,taipei,2024-03-21,74DA38F21136,2.0,1.0,25.119,121.505,9.0,臺北市北投區立農國小2018,7.0,8.0,4.0,92.0,19.12,2024-03-21T13:40:05Z
36,13:46:17,臺北市北投區立農里立農街1段250號,市立立農國小(2018),AirBox,taipei,2024-03-21,74DA38F21136,2.0,1.0,25.119,121.505,9.0,臺北市北投區立農國小2018,6.0,8.0,4.0,91.0,19.12,2024-03-21T13:46:17Z
37,13:52:30,臺北市北投區立農里立農街1段250號,市立立農國小(2018),AirBox,taipei,2024-03-21,74DA38F21136,2.0,1.0,25.119,121.505,9.0,臺北市北投區立農國小2018,6.0,8.0,4.0,91.0,19.12,2024-03-21T13:52:30Z
38,13:58:44,臺北市北投區立農里立農街1段250號,市立立農國小(2018),AirBox,taipei,2024-03-21,74DA38F21136,2.0,1.0,25.119,121.505,9.0,臺北市北投區立農國小2018,6.0,8.0,4.0,91.0,19.25,2024-03-21T13:58:44Z
39,14:04:58,臺北市北投區立農里立農街1段250號,市立立農國小(2018),AirBox,taipei,2024-03-21,74DA38F21136,2.0,1.0,25.119,121.505,9.0,臺北市北投區立農國小2018,7.0,9.0,4.0,91.0,19.25,2024-03-21T14:04:58Z
40,14:11:11,臺北市北投區立農里立農街1段250號,市立立農國小(2018),AirBox,taipei,2024-03-21,74DA38F21136,2.0,1.0,25.119,121.505,9.0,臺北市北投區立農國小2018,6.0,8.0,4.0,91.0,19.12,2024-03-21T14:11:11Z
41,14:17:23,臺北市北投區立農里立農街1段250號,市立立農國小(2018),AirBox,taipei,2024-03-21,74DA38F21136,2.0,1.0,25.119,121.505,9.0,臺北市北投區立農國小2018,6.0,7.0,4.0,91.0,19.0,2024-03-21T14:17:23Z
42,14:23:38,臺北市北投區立農里立農街1段250號,市立立農國小(2018),AirBox,taipei,2024-03-21,74DA38F21136,2.0,1.0,25.119,121.505,9.0,臺北市北投區立農國小2018,6.0,8.0,4.0,91.0,19.25,2024-03-21T14:23:38Z
43,14:29:52,臺北市北投區立農里立農街1段250號,市立立農國小(2018),AirBox,taipei,2024-03-21,74DA38F21136,2.0,1.0,25.119,121.505,9.0,臺北市北投區立農國小2018,6.0,7.0,4.0,91.0,19.25,2024-03-21T14:29:52Z
44,14:36:05,臺北市北投區立農里立農街1段250號,市立立農國小(2018),AirBox,taipei,2024-03-21,74DA38F21136,2.0,1.0,25.119,121.505,9.0,臺北市北投區立農國小2018,6.0,7.0,4.0,90.0,19.37,2024-03-21T14:36:05Z
45,14:42:18,臺北市北投區立農里立農街1段250號,市立立農國小(2018),AirBox,taipei,2024-03-21,74DA38F21136,2.0,1.0,25.119,121.505,9.0,臺北市北投區立農國小2018,7.0,8.0,4.0,90.0,19.37,2024-03-21T14:42:18Z
46,14:48:31,臺北市北投區立農里立農街1段250號,市立立農國小(2018),AirBox,taipei,2024-03-21,74DA38F21136,2.0,1.0,25.119,121.505,9.0,臺北市北投區立農國小2018,6.0,8.0,4.0,90.0,19.37,2024-03-21T14:48:31Z
47,14:54:45,臺北市北投區立農里立農街1段250號,市立立農國小(2018),AirBox,taipei,2024-03-21,74DA38F21136,2.0,1.0,25.119,121.505,9.0,臺北市北投區立農國小2018,6.0,7.0,4.0,90.0,19.37,2024-03-21T14:54:45Z
48,15:00:59,臺北市北投區立農里立農街1段250號,市立立農國小(2018),AirBox,taipei,2024-03-21,74DA38F21136,2.0,1.0,25.119,121.505,9.0,臺北市北投區立農國小2018,6.0,7.0,4.0,90.0,19.37,2024-03-21T15:00:59Z
49,15:07:12,臺北市北投區立農里立農街1段250號,市立立農國小(2018),AirBox,taipei,2024-03-21,74DA38F21136,2.0,1.0,25.119,121.505,9.0,臺北市北投區立農國小2018,6.0,7.0,4.0,90.0,19.37,2024-03-21T15:07:12Z
50,15:13:26,臺北市北投區立農里立農街1段250號,市立立農國小(2018),AirBox,taipei,2024-03-21,74DA38F21136,2.0,1.0,25.119,121.505,9.0,臺北市北投區立農國小2018,6.0,8.0,4.0,90.0,19.25,2024-03-21T15:13:26Z
51,15:19:39,臺北市北投區立農里立農街1段250號,市立立農國小(2018),AirBox,taipei,2024-03-21,74DA38F21136,2.0,1.0,25.119,121.505,9.0,臺北市北投區立農國小2018,6.0,8.0,4.0,90.0,19.25,2024-03-21T15:19:39Z
52,15:25:52,臺北市北投區立農里立農街1段250號,市立立農國小(2018),AirBox,taipei,2024-03-21,74DA38F21136,2.0,1.0,25.119,121.505,9.0,臺北市北投區立農國小2018,6.0,7.0,4.0,90.0,19.25,2024-03-21T15:25:52Z
53,15:32:06,臺北市北投區立農里立農街1段250號,市立立農國小(2018),AirBox,taipei,2024-03-21,74DA38F21136,2.0,1.0,25.119,121.505,9.0,臺北市北投區立農國小2018,5.0,7.0,3.0,90.0,19.12,2024-03-21T15:32:06Z
54,15:38:19,臺北市北投區立農里立農街1段250號,市立立農國小(2018),AirBox,taipei,2024-03-21,74DA38F21136,2.0,1.0,25.119,121.505,9.0,臺北市北投區立農國小2018,5.0,6.0,3.0,91.0,19.12,2024-03-21T15:38:19Z
55,15:44:32,臺北市北投區立農里立農街1段250號,市立立農國小(2018),AirBox,taipei,2024-03-21,74DA38F21136,2.0,1.0,25.119,121.505,9.0,臺北市北投區立農國小2018,5.0,7.0,3.0,91.0,19.12,2024-03-21T15:44:32Z
56,15:50:46,臺北市北投區立農里立農街1段250號,市立立農國小(2018),AirBox,taipei,2024-03-21,74DA38F21136,2.0,1.0,25.119,121.505,9.0,臺北市北投區立農國小2018,6.0,7.0,3.0,91.0,19.12,2024-03-21T15:50:46Z
57,15:56:59,臺北市北投區立農里立農街1段250號,市立立農國小(2018),AirBox,taipei,2024-03-21,74DA38F21136,2.0,1.0,25.119,121.505,9.0,臺北市北投區立農國小2018,5.0,6.0,3.0,92.0,19.12,2024-03-21T15:56:59Z
58,16:03:12,臺北市北投區立農里立農街1段250號,市立立農國小(2018),AirBox,taipei,2024-03-21,74DA38F21136,2.0,1.0,25.119,121.505,9.0,臺北市北投區立農國小2018,5.0,7.0,3.0,92.0,19.25,2024-03-21T16:03:12Z
59,16:09:26,臺北市北投區立農里立農街1段250號,市立立農國小(2018),AirBox,taipei,2024-03-21,74DA38F21136,2.0,1.0,25.119,121.505,9.0,臺北市北投區立農國小2018,4.0,5.0,3.0,92.0,19.25,2024-03-21T16:09:26Z
60,16:15:40,臺北市北投區立農里立農街1段250號,市立立農國小(2018),AirBox,taipei,2024-03-21,74DA38F21136,2.0,1.0,25.119,121.505,9.0,臺北市北投區立農國小2018,5.0,5.0,3.0,91.0,19.37,2024-03-21T16:15:40Z
61,16:21:53,臺北市北投區立農里立農街1段250號,市立立農國小(2018),AirBox,taipei,2024-03-21,74DA38F21136,2.0,1.0,25.119,121.505,9.0,臺北市北投區立農國小2018,5.0,7.0,3.0,92.0,19.37,2024-03-21T16:21:53Z
62,16:28:06,臺北市北投區立農里立農街1段250號,市立立農國小(2018),AirBox,taipei,2024-03-21,74DA38F21136,2.0,1.0,25.119,121.505,9.0,臺北市北投區立農國小2018,5.0,7.0,3.0,92.0,19.37,2024-03-21T16:28:06Z
63,16:34:19,臺北市北投區立農里立農街1段250號,市立立農國小(2018),AirBox,taipei,2024-03-21,74DA38F21136,2.0,1.0,25.119,121.505,9.0,臺北市北投區立農國小2018,5.0,6.0,3.0,92.0,19.25,2024-03-21T16:34:19Z
64,16:40:32,臺北市北投區立農里立農街1段250號,市立立農國小(2018),AirBox,taipei,2024-03-21,74DA38F21136,2.0,1.0,25.119,121.505,9.0,臺北市北投區立農國小2018,5.0,6.0,3.0,92.0,19.25,2024-03-21T16:40:32Z
65,16:46:46,臺北市北投區立農里立農街1段250號,市立立農國小(2018),AirBox,taipei,2024-03-21,74DA38F21136,2.0,1.0,25.119,121.505,9.0,臺北市北投區立農國小2018,5.0,7.0,3.0,91.0,19.25,2024-03-21T16:46:46Z
66,16:53:00,臺北市北投區立農里立農街1段250號,市立立農國小(2018),AirBox,taipei,2024-03-21,74DA38F21136,2.0,1.0,25.119,121.505,9.0,臺北市北投區立農國小2018,5.0,7.0,3.0,91.0,19.25,2024-03-21T16:53:00Z
67,16:59:14,臺北市北投區立農里立農街1段250號,市立立農國小(2018),AirBox,taipei,2024-03-21,74DA38F21136,2.0,1.0,25.119,121.505,9.0,臺北市北投區立農國小2018,5.0,6.0,3.0,91.0,19.12,2024-03-21T16:59:14Z
68,17:05:28,臺北市北投區立農里立農街1段250號,市立立農國小(2018),AirBox,taipei,2024-03-21,74DA38F21136,2.0,1.0,25.119,121.505,9.0,臺北市北投區立農國小2018,6.0,7.0,3.0,91.0,19.12,2024-03-21T17:05:28Z
69,17:11:42,臺北市北投區立農里立農街1段250號,市立立農國小(2018),AirBox,taipei,2024-03-21,74DA38F21136,2.0,1.0,25.119,121.505,9.0,臺北市北投區立農國小2018,6.0,7.0,3.0,91.0,19.12,2024-03-21T17:11:42Z
70,17:17:55,臺北市北投區立農里立農街1段250號,市立立農國小(2018),AirBox,taipei,2024-03-21,74DA38F21136,2.0,1.0,25.119,121.505,9.0,臺北市北投區立農國小2018,6.0,8.0,3.0,91.0,19.12,2024-03-21T17:17:55Z
71,17:24:10,臺北市北投區立農里立農街1段250號,市立立農國小(2018),AirBox,taipei,2024-03-21,74DA38F21136,2.0,1.0,25.119,121.505,9.0,臺北市北投區立農國小2018,6.0,8.0,3.0,91.0,19.12,2024-03-21T17:24:10Z
72,17:30:23,臺北市北投區立農里立農街1段250號,市立立農國小(2018),AirBox,taipei,2024-03-21,74DA38F21136,2.0,1.0,25.119,121.505,9.0,臺北市北投區立農國小2018,5.0,7.0,3.0,92.0,19.12,2024-03-21T17:30:23Z
73,17:36:37,臺北市北投區立農里立農街1段250號,市立立農國小(2018),AirBox,taipei,2024-03-21,74DA38F21136,2.0,1.0,25.119,121.505,9.0,臺北市北投區立農國小2018,6.0,9.0,4.0,92.0,19.0,2024-03-21T17:36:37Z
74,17:42:50,臺北市北投區立農里立農街1段250號,市立立農國小(2018),AirBox,taipei,2024-03-21,74DA38F21136,2.0,1.0,25.119,121.505,9.0,臺北市北投區立農國小2018,5.0,7.0,3.0,92.0,19.0,2024-03-21T17:42:50Z
75,17:49:03,臺北市北投區立農里立農街1段250號,市立立農國小(2018),AirBox,taipei,2024-03-21,74DA38F21136,2.0,1.0,25.119,121.505,9.0,臺北市北投區立農國小2018,6.0,6.0,3.0,92.0,18.87,2024-03-21T17:49:03Z
76,17:55:18,臺北市北投區立農里立農街1段250號,市立立農國小(2018),AirBox,taipei,2024-03-21,74DA38F21136,2.0,1.0,25.119,121.505,9.0,臺北市北投區立農國小2018,7.0,8.0,3.0,92.0,18.87,2024-03-21T17:55:18Z
77,18:01:31,臺北市北投區立農里立農街1段250號,市立立農國小(2018),AirBox,taipei,2024-03-21,74DA38F21136,2.0,1.0,25.119,121.505,9.0,臺北市北投區立農國小2018,5.0,6.0,3.0,92.0,18.87,2024-03-21T18:01:31Z
78,18:07:45,臺北市北投區立農里立農街1段250號,市立立農國小(2018),AirBox,taipei,2024-03-21,74DA38F21136,2.0,1.0,25.119,121.505,9.0,臺北市北投區立農國小2018,6.0,8.0,4.0,92.0,18.75,2024-03-21T18:07:45Z
79,18:13:59,臺北市北投區立農里立農街1段250號,市立立農國小(2018),AirBox,taipei,2024-03-21,74DA38F21136,2.0,1.0,25.119,121.505,9.0,臺北市北投區立農國小2018,5.0,6.0,3.0,92.0,18.75,2024-03-21T18:13:59Z
80,18:20:13,臺北市北投區立農里立農街1段250號,市立立農國小(2018),AirBox,taipei,2024-03-21,74DA38F21136,2.0,1.0,25.119,121.505,9.0,臺北市北投區立農國小2018,6.0,7.0,4.0,92.0,18.87,2024-03-21T18:20:13Z
81,18:26:27,臺北市北投區立農里立農街1段250號,市立立農國小(2018),AirBox,taipei,2024-03-21,74DA38F21136,2.0,1.0,25.119,121.505,9.0,臺北市北投區立農國小2018,6.0,7.0,3.0,92.0,18.87,2024-03-21T18:26:27Z
82,18:32:41,臺北市北投區立農里立農街1段250號,市立立農國小(2018),AirBox,taipei,2024-03-21,74DA38F21136,2.0,1.0,25.119,121.505,9.0,臺北市北投區立農國小2018,6.0,8.0,4.0,92.0,19.0,2024-03-21T18:32:41Z
83,18:38:55,臺北市北投區立農里立農街1段250號,市立立農國小(2018),AirBox,taipei,2024-03-21,74DA38F21136,2.0,1.0,25.119,121.505,9.0,臺北市北投區立農國小2018,6.0,7.0,3.0,92.0,19.0,2024-03-21T18:38:55Z
84,18:45:08,臺北市北投區立農里立農街1段250號,市立立農國小(2018),AirBox,taipei,2024-03-21,74DA38F21136,2.0,1.0,25.119,121.505,9.0,臺北市北投區立農國小2018,6.0,8.0,4.0,92.0,19.0,2024-03-21T18:45:08Z
85,18:51:21,臺北市北投區立農里立農街1段250號,市立立農國小(2018),AirBox,taipei,2024-03-21,74DA38F21136,2.0,1.0,25.119,121.505,9.0,臺北市北投區立農國小2018,6.0,8.0,4.0,93.0,19.0,2024-03-21T18:51:21Z
86,18:57:36,臺北市北投區立農里立農街1段250號,市立立農國小(2018),AirBox,taipei,2024-03-21,74DA38F21136,2.0,1.0,25.119,121.505,9.0,臺北市北投區立農國小2018,6.0,7.0,3.0,92.0,19.0,2024-03-21T18:57:36Z
87,19:03:49,臺北市北投區立農里立農街1段250號,市立立農國小(2018),AirBox,taipei,2024-03-21,74DA38F21136,2.0,1.0,25.119,121.505,9.0,臺北市北投區立農國小2018,7.0,8.0,4.0,92.0,19.0,2024-03-21T19:03:49Z
88,19:10:03,臺北市北投區立農里立農街1段250號,市立立農國小(2018),AirBox,taipei,2024-03-21,74DA38F21136,2.0,1.0,25.119,121.505,9.0,臺北市北投區立農國小2018,6.0,7.0,4.0,92.0,19.0,2024-03-21T19:10:03Z
89,19:16:17,臺北市北投區立農里立農街1段250號,市立立農國小(2018),AirBox,taipei,2024-03-21,74DA38F21136,2.0,1.0,25.119,121.505,9.0,臺北市北投區立農國小2018,6.0,7.0,3.0,92.0,19.0,2024-03-21T19:16:17Z
90,19:22:30,臺北市北投區立農里立農街1段250號,市立立農國小(2018),AirBox,taipei,2024-03-21,74DA38F21136,2.0,1.0,25.119,121.505,9.0,臺北市北投區立農國小2018,6.0,7.0,4.0,92.0,19.0,2024-03-21T19:22:30Z
91,19:28:44,臺北市北投區立農里立農街1段250號,市立立農國小(2018),AirBox,taipei,2024-03-21,74DA38F21136,2.0,1.0,25.119,121.505,9.0,臺北市北投區立農國小2018,6.0,7.0,4.0,93.0,19.0,2024-03-21T19:28:44Z
92,19:34:58,臺北市北投區立農里立農街1段250號,市立立農國小(2018),AirBox,taipei,2024-03-21,74DA38F21136,2.0,1.0,25.119,121.505,9.0,臺北市北投區立農國小2018,6.0,7.0,4.0,93.0,19.0,2024-03-21T19:34:58Z
93,19:41:10,臺北市北投區立農里立農街1段250號,市立立農國小(2018),AirBox,taipei,2024-03-21,74DA38F21136,2.0,1.0,25.119,121.505,9.0,臺北市北投區立農國小2018,6.0,7.0,4.0,94.0,18.87,2024-03-21T19:41:10Z
94,19:47:24,臺北市北投區立農里立農街1段250號,市立立農國小(2018),AirBox,taipei,2024-03-21,74DA38F21136,2.0,1.0,25.119,121.505,9.0,臺北市北投區立農國小2018,7.0,8.0,4.0,95.0,18.87,2024-03-21T19:47:24Z
95,19:53:38,臺北市北投區立農里立農街1段250號,市立立農國小(2018),AirBox,taipei,2024-03-21,74DA38F21136,2.0,1.0,25.119,121.505,9.0,臺北市北投區立農國小2018,7.0,8.0,4.0,96.0,18.75,2024-03-21T19:53:38Z
96,20:00:04,臺北市北投區立農里立農街1段250號,市立立農國小(2018),AirBox,taipei,2024-03-21,74DA38F21136,2.0,1.0,25.119,121.505,9.0,臺北市北投區立農國小2018,7.0,8.0,4.0,97.0,18.75,2024-03-21T20:00:04Z
97,20:06:18,臺北市北投區立農里立農街1段250號,市立立農國小(2018),AirBox,taipei,2024-03-21,74DA38F21136,2.0,1.0,25.119,121.505,9.0,臺北市北投區立農國小2018,8.0,9.0,5.0,97.0,18.75,2024-03-21T20:06:18Z
98,20:12:37,臺北市北投區立農里立農街1段250號,市立立農國小(2018),AirBox,taipei,2024-03-21,74DA38F21136,2.0,1.0,25.119,121.505,9.0,臺北市北投區立農國小2018,8.0,8.0,5.0,96.0,18.75,2024-03-21T20:12:37Z
99,20:18:51,臺北市北投區立農里立農街1段250號,市立立農國小(2018),AirBox,taipei,2024-03-21,74DA38F21136,2.0,1.0,25.119,121.505,9.0,臺北市北投區立農國小2018,8.0,10.0,5.0,97.0,18.75,2024-03-21T20:18:51Z
100,20:25:04,臺北市北投區立農里立農街1段250號,市立立農國小(2018),AirBox,taipei,2024-03-21,74DA38F21136,2.0,1.0,25.119,121.505,9.0,臺北市北投區立農國小2018,8.0,9.0,5.0,97.0,18.75,2024-03-21T20:25:04Z
101,20:31:17,臺北市北投區立農里立農街1段250號,市立立農國小(2018),AirBox,taipei,2024-03-21,74DA38F21136,2.0,1.0,25.119,121.505,9.0,臺北市北投區立農國小2018,8.0,10.0,5.0,97.0,18.62,2024-03-21T20:31:17Z
102,20:37:33,臺北市北投區立農里立農街1段250號,市立立農國小(2018),AirBox,taipei,2024-03-21,74DA38F21136,2.0,1.0,25.119,121.505,9.0,臺北市北投區立農國小2018,8.0,9.0,5.0,97.0,18.62,2024-03-21T20:37:33Z
103,20:43:45,臺北市北投區立農里立農街1段250號,市立立農國小(2018),AirBox,taipei,2024-03-21,74DA38F21136,2.0,1.0,25.119,121.505,9.0,臺北市北投區立農國小2018,8.0,10.0,5.0,98.0,18.62,2024-03-21T20:43:45Z
104,20:49:59,臺北市北投區立農里立農街1段250號,市立立農國小(2018),AirBox,taipei,2024-03-21,74DA38F21136,2.0,1.0,25.119,121.505,9.0,臺北市北投區立農國小2018,8.0,9.0,5.0,98.0,18.62,2024-03-21T20:49:59Z
105,20:56:11,臺北市北投區立農里立農街1段250號,市立立農國小(2018),AirBox,taipei,2024-03-21,74DA38F21136,2.0,1.0,25.119,121.505,9.0,臺北市北投區立農國小2018,8.0,9.0,5.0,99.0,18.62,2024-03-21T20:56:11Z
106,21:02:24,臺北市北投區立農里立農街1段250號,市立立農國小(2018),AirBox,taipei,2024-03-21,74DA38F21136,2.0,1.0,25.119,121.505,9.0,臺北市北投區立農國小2018,8.0,10.0,5.0,99.0,18.62,2024-03-21T21:02:24Z
107,21:08:38,臺北市北投區立農里立農街1段250號,市立立農國小(2018),AirBox,taipei,2024-03-21,74DA38F21136,2.0,1.0,25.119,121.505,9.0,臺北市北投區立農國小2018,8.0,10.0,5.0,100.0,18.62,2024-03-21T21:08:38Z
108,21:14:52,臺北市北投區立農里立農街1段250號,市立立農國小(2018),AirBox,taipei,2024-03-21,74DA38F21136,2.0,1.0,25.119,121.505,9.0,臺北市北投區立農國小2018,8.0,9.0,5.0,99.0,18.62,2024-03-21T21:14:52Z
109,21:21:05,臺北市北投區立農里立農街1段250號,市立立農國小(2018),AirBox,taipei,2024-03-21,74DA38F21136,2.0,1.0,25.119,121.505,9.0,臺北市北投區立農國小2018,8.0,10.0,5.0,100.0,18.5,2024-03-21T21:21:05Z
110,21:27:19,臺北市北投區立農里立農街1段250號,市立立農國小(2018),AirBox,taipei,2024-03-21,74DA38F21136,2.0,1.0,25.119,121.505,9.0,臺北市北投區立農國小2018,8.0,11.0,6.0,100.0,18.5,2024-03-21T21:27:19Z
111,21:33:32,臺北市北投區立農里立農街1段250號,市立立農國小(2018),AirBox,taipei,2024-03-21,74DA38F21136,2.0,1.0,25.119,121.505,9.0,臺北市北投區立農國小2018,9.0,11.0,6.0,100.0,18.62,2024-03-21T21:33:32Z
112,21:39:45,臺北市北投區立農里立農街1段250號,市立立農國小(2018),AirBox,taipei,2024-03-21,74DA38F21136,2.0,1.0,25.119,121.505,9.0,臺北市北投區立農國小2018,9.0,11.0,6.0,100.0,18.5,2024-03-21T21:39:45Z
113,21:45:59,臺北市北投區立農里立農街1段250號,市立立農國小(2018),AirBox,taipei,2024-03-21,74DA38F21136,2.0,1.0,25.119,121.505,9.0,臺北市北投區立農國小2018,9.0,11.0,6.0,100.0,18.37,2024-03-21T21:45:59Z
114,21:52:13,臺北市北投區立農里立農街1段250號,市立立農國小(2018),AirBox,taipei,2024-03-21,74DA38F21136,2.0,1.0,25.119,121.505,9.0,臺北市北投區立農國小2018,10.0,11.0,6.0,100.0,18.37,2024-03-21T21:52:13Z
115,21:58:26,臺北市北投區立農里立農街1段250號,市立立農國小(2018),AirBox,taipei,2024-03-21,74DA38F21136,2.0,1.0,25.119,121.505,9.0,臺北市北投區立農國小2018,9.0,12.0,6.0,100.0,18.37,2024-03-21T21:58:26Z
116,22:04:40,臺北市北投區立農里立農街1段250號,市立立農國小(2018),AirBox,taipei,2024-03-21,74DA38F21136,2.0,1.0,25.119,121.505,9.0,臺北市北投區立農國小2018,10.0,12.0,6.0,100.0,18.37,2024-03-21T22:04:40Z
117,22:10:54,臺北市北投區立農里立農街1段250號,市立立農國小(2018),AirBox,taipei,2024-03-21,74DA38F21136,2.0,1.0,25.119,121.505,9.0,臺北市北投區立農國小2018,10.0,11.0,7.0,100.0,18.25,2024-03-21T22:10:54Z
118,22:17:08,臺北市北投區立農里立農街1段250號,市立立農國小(2018),AirBox,taipei,2024-03-21,74DA38F21136,2.0,1.0,25.119,121.505,9.0,臺北市北投區立農國小2018,9.0,11.0,6.0,100.0,18.37,2024-03-21T22:17:08Z
119,22:23:22,臺北市北投區立農里立農街1段250號,市立立農國小(2018),AirBox,taipei,2024-03-21,74DA38F21136,2.0,1.0,25.119,121.505,9.0,臺北市北投區立農國小2018,11.0,13.0,7.0,100.0,18.37,2024-03-21T22:23:22Z
120,22:29:36,臺北市北投區立農里立農街1段250號,市立立農國小(2018),AirBox,taipei,2024-03-21,74DA38F21136,2.0,1.0,25.119,121.505,9.0,臺北市北投區立農國小2018,10.0,12.0,7.0,100.0,18.37,2024-03-21T22:29:36Z
121,22:35:49,臺北市北投區立農里立農街1段250號,市立立農國小(2018),AirBox,taipei,2024-03-21,74DA38F21136,2.0,1.0,25.119,121.505,9.0,臺北市北投區立農國小2018,10.0,12.0,7.0,100.0,18.5,2024-03-21T22:35:49Z
122,22:42:03,臺北市北投區立農里立農街1段250號,市立立農國小(2018),AirBox,taipei,2024-03-21,74DA38F21136,2.0,1.0,25.119,121.505,9.0,臺北市北投區立農國小2018,10.0,12.0,7.0,100.0,18.37,2024-03-21T22:42:03Z
123,22:48:17,臺北市北投區立農里立農街1段250號,市立立農國小(2018),AirBox,taipei,2024-03-21,74DA38F21136,2.0,1.0,25.119,121.505,9.0,臺北市北投區立農國小2018,11.0,13.0,7.0,100.0,18.5,2024-03-21T22:48:17Z
124,22:54:31,臺北市北投區立農里立農街1段250號,市立立農國小(2018),AirBox,taipei,2024-03-21,74DA38F21136,2.0,1.0,25.119,121.505,9.0,臺北市北投區立農國小2018,10.0,12.0,7.0,100.0,18.5,2024-03-21T22:54:31Z
125,23:00:45,臺北市北投區立農里立農街1段250號,市立立農國小(2018),AirBox,taipei,2024-03-21,74DA38F21136,2.0,1.0,25.119,121.505,9.0,臺北市北投區立農國小2018,11.0,13.0,7.0,100.0,18.5,2024-03-21T23:00:45Z
126,23:07:00,臺北市北投區立農里立農街1段250號,市立立農國小(2018),AirBox,taipei,2024-03-21,74DA38F21136,2.0,1.0,25.119,121.505,9.0,臺北市北投區立農國小2018,11.0,13.0,7.0,100.0,18.5,2024-03-21T23:07:00Z
127,23:13:13,臺北市北投區立農里立農街1段250號,市立立農國小(2018),AirBox,taipei,2024-03-21,74DA38F21136,2.0,1.0,25.119,121.505,9.0,臺北市北投區立農國小2018,10.0,12.0,7.0,100.0,18.5,2024-03-21T23:13:13Z
128,23:19:26,臺北市北投區立農里立農街1段250號,市立立農國小(2018),AirBox,taipei,2024-03-21,74DA38F21136,2.0,1.0,25.119,121.505,9.0,臺北市北投區立農國小2018,11.0,13.0,7.0,100.0,18.5,2024-03-21T23:19:26Z
129,23:25:39,臺北市北投區立農里立農街1段250號,市立立農國小(2018),AirBox,taipei,2024-03-21,74DA38F21136,2.0,1.0,25.119,121.505,9.0,臺北市北投區立農國小2018,10.0,12.0,7.0,100.0,18.62,2024-03-21T23:25:39Z
130,23:31:54,臺北市北投區立農里立農街1段250號,市立立農國小(2018),AirBox,taipei,2024-03-21,74DA38F21136,2.0,1.0,25.119,121.505,9.0,臺北市北投區立農國小2018,11.0,14.0,7.0,100.0,18.62,2024-03-21T23:31:54Z
131,23:38:09,臺北市北投區立農里立農街1段250號,市立立農國小(2018),AirBox,taipei,2024-03-21,74DA38F21136,2.0,1.0,25.119,121.505,9.0,臺北市北投區立農國小2018,11.0,13.0,7.0,100.0,18.75,2024-03-21T23:38:09Z
132,23:44:22,臺北市北投區立農里立農街1段250號,市立立農國小(2018),AirBox,taipei,2024-03-21,74DA38F21136,2.0,1.0,25.119,121.505,9.0,臺北市北投區立農國小2018,12.0,14.0,8.0,100.0,18.87,2024-03-21T23:44:22Z
133,23:50:36,臺北市北投區立農里立農街1段250號,市立立農國小(2018),AirBox,taipei,2024-03-21,74DA38F21136,2.0,1.0,25.119,121.505,9.0,臺北市北投區立農國小2018,12.0,15.0,7.0,100.0,18.87,2024-03-21T23:50:36Z
134,23:56:50,臺北市北投區立農里立農街1段250號,市立立農國小(2018),AirBox,taipei,2024-03-21,74DA38F21136,2.0,1.0,25.119,121.505,9.0,臺北市北投區立農國小2018,12.0,14.0,7.0,100.0,18.75,2024-03-21T23:56:50Z
135,00:03:05,臺北市北投區立農里立農街1段250號,市立立農國小(2018),AirBox,taipei,2024-03-22,74DA38F21136,2.0,1.0,25.119,121.505,9.0,臺北市北投區立農國小2018,11.0,14.0,7.0,100.0,19.0,2024-03-22T00:03:05Z
136,00:09:19,臺北市北投區立農里立農街1段250號,市立立農國小(2018),AirBox,taipei,2024-03-22,74DA38F21136,2.0,1.0,25.119,121.505,9.0,臺北市北投區立農國小2018,12.0,14.0,8.0,100.0,19.0,2024-03-22T00:09:19Z
137,00:15:34,臺北市北投區立農里立農街1段250號,市立立農國小(2018),AirBox,taipei,2024-03-22,74DA38F21136,2.0,1.0,25.119,121.505,9.0,臺北市北投區立農國小2018,14.0,17.0,9.0,99.0,19.0,2024-03-22T00:15:34Z
138,00:21:50,臺北市北投區立農里立農街1段250號,市立立農國小(2018),AirBox,taipei,2024-03-22,74DA38F21136,2.0,1.0,25.119,121.505,9.0,臺北市北投區立農國小2018,14.0,17.0,9.0,100.0,19.12,2024-03-22T00:21:50Z
139,00:28:06,臺北市北投區立農里立農街1段250號,市立立農國小(2018),AirBox,taipei,2024-03-22,74DA38F21136,2.0,1.0,25.119,121.505,9.0,臺北市北投區立農國小2018,15.0,18.0,9.0,99.0,19.25,2024-03-22T00:28:06Z
140,00:34:21,臺北市北投區立農里立農街1段250號,市立立農國小(2018),AirBox,taipei,2024-03-22,74DA38F21136,2.0,1.0,25.119,121.505,9.0,臺北市北投區立農國小2018,12.0,15.0,7.0,99.0,19.25,2024-03-22T00:34:21Z